FW8456 Weather Reports


time (UTC)temp
C
wind
direction
speed
KPH
gust
KPH
rain 1hr
cm
rain 24hr
cm
rain mn
cm
humidity
%
barometer
mb
20260505041639 9 338 0.0 0.0 0.00 0.00 0.00 85 1010.6
20260505041130 9 0 0.0 0.0 0.00 0.00 0.00 87 1010.6
20260505040619 9 338 0.0 0.0 0.00 0.00 0.00 87 1010.9
20260505040109 8 0 0.0 0.0 0.00 0.00 0.00 87 1010.7
20260505035559 8 338 0.0 0.0 0.00 0.00 0.00 87 1010.9
20260505035049 9 23 0.0 0.0 0.00 0.00 0.00 86 1010.9
20260505034538 9 0 0.0 0.0 0.00 0.00 0.00 87 1010.9
20260505034029 8 338 0.0 0.0 0.00 0.00 0.00 88 1010.9
20260505033518 8 23 0.0 0.0 0.00 0.00 0.00 86 1011.1
20260505032458 10 338 0.0 0.0 0.00 0.00 0.00 85 1010.9
20260505031948 9 315 0.0 0.0 0.00 0.00 0.00 86 1011.0
20260505031438 9 315 0.0 0.0 0.00 0.00 0.00 86 1010.9
20260505030928 9 0 0.0 0.0 0.00 0.00 0.00 86 1011.1
20260505025358 8 0 0.0 0.0 0.00 0.00 0.00 87 1010.8
20260505024337 7 0 0.0 0.0 0.00 0.00 0.00 86 1010.9
20260505023827 8 23 0.0 0.0 0.00 0.00 0.00 85 1010.8
20260505022807 10 23 0.0 0.0 0.00 0.00 0.00 83 1010.8
20260505021746 10 0 0.0 0.0 0.00 0.00 0.00 83 1010.9
20260505021237 10 23 0.0 0.0 0.00 0.00 0.00 83 1011.0
20260505020726 10 315 0.0 0.0 0.00 0.00 0.00 83 1011.1
20260505020217 10 0 0.0 0.0 0.00 0.00 0.00 81 1010.8
20260505015706 11 338 0.0 0.0 0.00 0.00 0.00 81 1010.9
20260505014136 10 0 0.0 0.0 0.00 0.00 0.00 83 1010.3
20260505013626 10 338 0.0 0.0 0.00 0.00 0.00 83 1010.5
20260505013116 10 293 0.0 0.0 0.00 0.00 0.00 82 1010.3
20260505012606 10 338 0.0 0.0 0.00 0.00 0.00 81 1010.4
20260505012055 11 315 0.0 0.0 0.00 0.00 0.00 82 1010.4
20260505011548 10 315 0.0 0.0 0.00 0.00 0.00 83 1010.3
20260505011035 10 315 0.0 0.0 0.00 0.00 0.00 82 1010.1
20260505010526 11 293 0.0 0.0 0.00 0.00 0.00 82 1009.9
20260505010015 11 338 0.0 0.0 0.00 0.00 0.00 83 1009.9
20260505005506 10 0 0.0 0.0 0.00 0.00 0.00 82 1009.9
20260505004955 11 0 0.0 0.0 0.00 0.00 0.00 79 1009.8
20260505004444 12 315 0.0 0.0 0.00 0.00 0.00 79 1009.7
20260505003935 12 293 0.0 0.0 0.00 0.00 0.00 79 1009.8
20260505003425 12 315 0.0 0.0 0.00 0.00 0.00 78 1009.6
20260505002914 11 338 0.0 0.0 0.00 0.00 0.00 77 1009.5
20260505001854 13 315 0.0 0.0 0.00 0.00 0.00 75 1009.4
20260505001344 13 315 0.0 0.0 0.00 0.00 0.00 76 1009.4
20260505000834 12 338 0.0 0.0 0.00 0.00 0.00 77 1009.2
20260505000324 12 23 0.0 0.0 0.00 0.00 0.00 77 1008.7
20260504234751 12 0 0.0 0.0 0.00 0.00 0.00 77 1008.9
20260504233730 13 0 0.0 0.0 0.00 0.00 0.00 74 1009.0
20260504232710 13 23 0.0 0.0 0.00 0.00 0.00 74 1008.8
20260504231650 13 0 0.0 0.0 0.00 0.00 0.00 73 1008.7
20260504231139 13 0 0.0 0.0 0.00 0.00 0.00 72 1008.8
20260504230630 14 0 0.0 0.0 0.00 0.00 0.00 71 1008.7
20260504230120 13 23 0.0 0.0 0.00 0.00 0.00 74 1008.8
20260504225609 13 23 0.0 0.0 0.00 0.00 0.00 74 1008.8
20260504225059 13 23 0.0 0.0 0.00 0.00 0.00 73 1008.7
20260504224549 13 23 0.0 0.0 0.00 0.00 0.00 73 1008.4
20260504224038 13 0 0.0 0.0 0.00 0.00 0.00 73 1008.7
20260504223018 13 23 0.0 0.0 0.00 0.00 0.00 73 1008.6
20260504222508 13 23 0.0 0.0 0.00 0.00 0.00 71 1008.6
20260504221959 14 23 0.0 0.0 0.00 0.00 0.00 69 1008.4
20260504220428 14 23 0.0 0.0 0.00 0.00 0.00 68 1008.4
20260504215918 15 0 0.0 0.0 0.00 0.00 0.00 67 1008.3
20260504215409 15 0 0.0 0.0 0.00 0.00 0.00 66 1008.2
20260504214348 16 45 0.0 0.0 0.00 0.00 0.00 63 1008.0
20260504213837 16 45 0.0 0.0 0.00 0.00 0.00 62 1008.1
20260504213331 17 68 0.0 0.0 0.00 0.00 0.00 61 1008.2
20260504212817 17 45 0.0 0.0 0.00 0.00 0.00 60 1008.1
20260504212308 17 68 0.0 0.0 0.00 0.00 0.00 58 1007.9
20260504211757 18 45 0.0 0.0 0.00 0.00 0.00 57 1008.0
20260504211247 18 45 0.0 0.0 0.00 0.00 0.00 56 1008.2
20260504210736 19 68 0.0 3.2 0.00 0.00 0.00 55 1008.2
20260504205717 20 45 0.0 9.7 0.00 0.00 0.00 52 1007.9
20260504205207 20 68 4.8 9.7 0.00 0.00 0.00 51 1008.0
20260504204657 21 68 0.0 0.0 0.00 0.00 0.00 48 1007.9
20260504204146 21 90 0.0 0.0 0.00 0.00 0.00 47 1008.0
20260504203636 21 90 0.0 0.0 0.00 0.00 0.00 45 1007.9
20260504203126 22 68 0.0 0.0 0.00 0.00 0.00 45 1008.1
20260504202616 22 90 0.0 0.0 0.00 0.00 0.00 44 1008.1
20260504202109 22 90 0.0 0.0 0.00 0.00 0.00 43 1008.3
20260504201558 22 90 0.0 0.0 0.00 0.00 0.00 44 1008.0
20260504201048 22 68 0.0 0.0 0.00 0.00 0.00 44 1008.2
20260504200028 22 113 0.0 0.0 0.00 0.00 0.00 43 1008.0
20260504195519 22 90 0.0 0.0 0.00 0.00 0.00 44 1008.0
20260504195009 22 113 0.0 0.0 0.00 0.00 0.00 44 1008.0
20260504194458 22 90 0.0 0.0 0.00 0.00 0.00 44 1008.0
20260504192928 22 90 0.0 6.4 0.00 0.00 0.00 44 1008.2
20260504192417 22 68 0.0 6.4 0.00 0.00 0.00 43 1008.2
20260504191907 22 68 0.0 6.4 0.00 0.00 0.00 43 1008.3
20260504191358 22 68 0.0 0.0 0.00 0.00 0.00 42 1008.2
20260504190847 22 45 0.0 0.0 0.00 0.00 0.00 42 1008.4
20260504190334 22 113 0.0 0.0 0.00 0.00 0.00 42 1008.6
20260504185824 23 68 0.0 0.0 0.00 0.00 0.00 43 1008.4
20260504184804 22 45 0.0 3.2 0.00 0.00 0.00 42 1008.6
20260504184254 22 23 0.0 6.4 0.00 0.00 0.00 43 1008.7
20260504183233 22 68 0.0 0.0 0.00 0.00 0.00 43 1008.9
20260504182723 22 90 0.0 0.0 0.00 0.00 0.00 43 1009.1
20260504182213 22 135 0.0 0.0 0.00 0.00 0.00 43 1008.8
20260504181703 22 113 0.0 0.0 0.00 0.00 0.00 43 1008.7
20260504181152 22 135 0.0 0.0 0.00 0.00 0.00 43 1009.0
20260504180643 22 135 0.0 6.4 0.00 0.00 0.00 43 1008.9
20260504180133 21 158 0.0 6.4 0.00 0.00 0.00 44 1009.1
20260504175623 22 180 0.0 6.4 0.00 0.00 0.00 45 1009.1
20260504175115 22 113 0.0 0.0 0.00 0.00 0.00 44 1009.3
20260504174603 22 68 0.0 0.0 0.00 0.00 0.00 44 1009.2
20260504174053 21 135 0.0 0.0 0.00 0.00 0.00 46 1009.4
20260504173542 21 90 0.0 0.0 0.00 0.00 0.00 46 1009.6
20260504173033 22 135 0.0 0.0 0.00 0.00 0.00 45 1009.6
20260504172522 22 180 0.0 0.0 0.00 0.00 0.00 44 1009.5
20260504172012 22 90 0.0 0.0 0.00 0.00 0.00 44 1009.8
20260504170951 21 113 0.0 6.4 0.00 0.00 0.00 44 1009.9
20260504170441 21 113 0.0 0.0 0.00 0.00 0.00 45 1009.9
20260504151102 19 68 0.0 0.0 0.00 0.00 0.00 49 1011.7
20260504150553 18 45 0.0 0.0 0.00 0.00 0.00 51 1011.7
20260504140902 18 90 0.0 0.0 0.00 0.00 0.00 53 1012.2
20260504140351 17 90 0.0 0.0 0.00 0.00 0.00 53 1012.1
20260504130656 15 90 0.0 0.0 0.00 0.00 0.00 63 1012.8
20260504130146 14 90 0.0 0.0 0.00 0.00 0.00 65 1012.6
20260504110254 5 338 0.0 0.0 0.00 0.00 0.00 86 1011.3
20260504081730 8 338 0.0 0.0 0.00 0.00 0.00 80 1010.1
20260504081220 7 0 0.0 0.0 0.00 0.00 0.00 81 1010.3
20260504080710 10 338 0.0 0.0 0.00 0.00 0.00 78 1010.4
20260504050254 8 23 0.0 6.4 0.00 0.00 0.00 78 1010.8
20260504045745 8 23 0.0 6.4 0.00 0.00 0.00 77 1010.5